Time,TemperatureF,DewpointF,PressureIn,WindDirection,WindDirectionDegrees,WindSpeedMPH,WindSpeedGustMPH,Humidity,HourlyPrecipIn,Conditions,Clouds,dailyrainin,SoftwareType,DateUTC
2013-06-21 00:03:00,47.7,30.9,30.13,SW,225,0.0,0.0,52,0.00,CLR,,0.00,WeatherDisplay:10.37,2013-06-21 07:03:00,
2013-06-21 00:08:00,47.7,31.4,30.13,SW,225,0.0,0.0,53,0.00,CLR,,0.00,WeatherDisplay:10.37,2013-06-21 07:08:00,
2013-06-21 00:13:00,47.7,31.4,30.13,SW,225,0.0,0.0,53,0.00,CLR,,0.00,WeatherDisplay:10.37,2013-06-21 07:13:00,
2013-06-21 00:18:00,47.7,31.4,30.12,SW,225,0.0,0.0,53,0.00,CLR,,0.00,WeatherDisplay:10.37,2013-06-21 07:18:00,
2013-06-21 00:23:00,47.7,31.4,30.13,SW,225,0.0,0.0,53,0.00,CLR,,0.00,WeatherDisplay:10.37,2013-06-21 07:23:00,
2013-06-21 00:28:00,47.3,31.0,30.13,SW,225,0.0,0.0,53,0.00,CLR,,0.00,WeatherDisplay:10.37,2013-06-21 07:28:00,
2013-06-21 00:33:00,46.8,30.5,30.13,SW,225,0.0,0.0,53,0.00,CLR,,0.00,WeatherDisplay:10.37,2013-06-21 07:33:00,
2013-06-21 00:38:00,46.6,30.8,30.13,SW,225,1.2,0.0,54,0.00,CLR,,0.00,WeatherDisplay:10.37,2013-06-21 07:38:00,
2013-06-21 00:43:00,46.6,30.8,30.13,SSW,202,1.2,1.2,54,0.00,CLR,,0.00,WeatherDisplay:10.37,2013-06-21 07:43:00,
2013-06-21 00:48:00,46.4,30.6,30.13,SW,225,1.2,0.0,54,0.00,CLR,,0.00,WeatherDisplay:10.37,2013-06-21 07:48:00,
2013-06-21 00:53:00,46.4,31.1,30.13,SW,225,0.0,0.0,55,0.00,CLR,,0.00,WeatherDisplay:10.37,2013-06-21 07:53:00,
2013-06-21 00:58:00,46.4,31.1,30.13,SW,225,0.0,0.0,55,0.00,CLR,,0.00,WeatherDisplay:10.37,2013-06-21 07:58:00,
2013-06-21 01:03:00,46.4,31.5,30.13,SW,225,0.0,0.0,56,0.00,CLR,,0.00,WeatherDisplay:10.37,2013-06-21 08:03:00,
2013-06-21 01:08:00,46.2,31.4,30.13,SW,225,0.0,0.0,56,0.00,CLR,,0.00,WeatherDisplay:10.37,2013-06-21 08:08:00,
2013-06-21 01:13:00,46.0,31.2,30.12,SW,225,0.0,0.0,56,0.00,CLR,,0.00,WeatherDisplay:10.37,2013-06-21 08:13:00,
2013-06-21 01:18:00,45.9,31.0,30.12,SW,225,0.0,0.0,56,0.00,CLR,,0.00,WeatherDisplay:10.37,2013-06-21 08:18:00,
2013-06-21 01:23:00,45.7,30.9,30.13,SW,225,1.2,0.0,56,0.00,CLR,,0.00,WeatherDisplay:10.37,2013-06-21 08:23:00,
2013-06-21 01:28:00,45.5,30.7,30.13,SW,225,0.0,0.0,56,0.00,CLR,,0.00,WeatherDisplay:10.37,2013-06-21 08:28:00,
2013-06-21 01:33:00,45.5,30.7,30.13,SW,225,0.0,0.0,56,0.00,CLR,,0.00,WeatherDisplay:10.37,2013-06-21 08:33:00,
2013-06-21 01:38:00,45.5,31.1,30.13,SW,225,0.0,0.0,57,0.00,CLR,,0.00,WeatherDisplay:10.37,2013-06-21 08:38:00,
2013-06-21 01:43:00,45.5,31.1,30.13,SW,225,0.0,0.0,57,0.00,CLR,,0.00,WeatherDisplay:10.37,2013-06-21 08:43:00,
2013-06-21 01:48:00,45.3,31.0,30.12,SW,225,0.0,0.0,57,0.00,CLR,,0.00,WeatherDisplay:10.37,2013-06-21 08:48:00,
2013-06-21 01:53:00,45.1,30.8,30.13,West,270,0.0,0.0,57,0.00,CLR,,0.00,WeatherDisplay:10.37,2013-06-21 08:53:00,
2013-06-21 01:58:00,45.1,30.8,30.12,SW,225,0.0,0.0,57,0.00,CLR,,0.00,WeatherDisplay:10.37,2013-06-21 08:58:00,
2013-06-21 02:03:00,45.0,30.6,30.12,SW,225,1.2,1.2,57,0.00,CLR,,0.00,WeatherDisplay:10.37,2013-06-21 09:03:00,
2013-06-21 02:08:00,45.0,31.1,30.12,SW,225,1.2,0.0,58,0.00,CLR,,0.00,WeatherDisplay:10.37,2013-06-21 09:08:00,
2013-06-21 02:13:00,44.8,30.9,30.13,SW,225,0.0,0.0,58,0.00,CLR,,0.00,WeatherDisplay:10.37,2013-06-21 09:13:00,
2013-06-21 02:18:00,44.8,30.9,30.12,SW,225,0.0,0.0,58,0.00,CLR,,0.00,WeatherDisplay:10.37,2013-06-21 09:18:00,
2013-06-21 02:23:00,44.8,30.9,30.13,SW,225,0.0,0.0,58,0.00,CLR,,0.00,WeatherDisplay:10.37,2013-06-21 09:23:00,
2013-06-21 02:28:00,44.8,30.9,30.12,SW,225,0.0,0.0,58,0.00,CLR,,0.00,WeatherDisplay:10.37,2013-06-21 09:28:00,
2013-06-21 02:33:00,45.1,31.7,30.13,SW,225,0.0,0.0,59,0.00,CLR,,0.00,WeatherDisplay:10.37,2013-06-21 09:33:00,
2013-06-21 02:38:00,45.1,31.7,30.12,SW,225,0.0,0.0,59,0.00,CLR,,0.00,WeatherDisplay:10.37,2013-06-21 09:38:00,
2013-06-21 02:43:00,45.1,31.7,30.12,SW,225,0.0,0.0,59,0.00,CLR,,0.00,WeatherDisplay:10.37,2013-06-21 09:43:00,
2013-06-21 02:48:00,45.0,31.5,30.13,SW,225,0.0,0.0,59,0.00,CLR,,0.00,WeatherDisplay:10.37,2013-06-21 09:48:00,
2013-06-21 02:53:00,45.0,31.9,30.12,SW,225,0.0,0.0,60,0.00,CLR,,0.00,WeatherDisplay:10.37,2013-06-21 09:53:00,
2013-06-21 02:58:00,45.1,31.7,30.12,SW,225,0.0,0.0,59,0.00,CLR,,0.00,WeatherDisplay:10.37,2013-06-21 09:58:00,
2013-06-21 03:03:00,45.0,31.5,30.12,SW,225,0.0,0.0,59,0.00,CLR,,0.00,WeatherDisplay:10.37,2013-06-21 10:03:00,
2013-06-21 03:08:00,44.8,31.3,30.12,SW,225,1.2,0.0,59,0.00,CLR,,0.00,WeatherDisplay:10.37,2013-06-21 10:08:00,
2013-06-21 03:13:00,44.6,31.1,30.12,SW,225,0.0,0.0,59,0.00,CLR,,0.00,WeatherDisplay:10.37,2013-06-21 10:13:00,
2013-06-21 03:18:00,44.6,31.6,30.12,SW,225,0.0,0.0,60,0.00,CLR,,0.00,WeatherDisplay:10.37,2013-06-21 10:18:00,
2013-06-21 03:23:00,45.0,31.9,30.12,SW,225,0.0,0.0,60,0.00,CLR,,0.00,WeatherDisplay:10.37,2013-06-21 10:23:00,
2013-06-21 03:28:00,44.8,31.7,30.12,SW,225,0.0,0.0,60,0.00,CLR,,0.00,WeatherDisplay:10.37,2013-06-21 10:28:00,
2013-06-21 03:33:00,45.0,31.9,30.11,SW,225,0.0,0.0,60,0.00,CLR,,0.00,WeatherDisplay:10.37,2013-06-21 10:33:00,
2013-06-21 03:38:00,44.8,31.7,30.11,West,270,0.0,0.0,60,0.00,CLR,,0.00,WeatherDisplay:10.37,2013-06-21 10:38:00,
2013-06-21 03:43:00,44.8,32.1,30.11,West,270,0.0,0.0,61,0.00,CLR,,0.00,WeatherDisplay:10.37,2013-06-21 10:43:00,
2013-06-21 03:48:00,44.8,32.1,30.11,West,270,1.2,0.0,61,0.00,CLR,,0.00,WeatherDisplay:10.37,2013-06-21 10:48:00,
2013-06-21 03:53:00,44.6,31.6,30.11,SW,225,0.0,0.0,60,0.00,CLR,,0.00,WeatherDisplay:10.37,2013-06-21 10:53:00,
2013-06-21 03:58:00,44.8,32.1,30.11,West,270,1.2,0.0,61,0.00,CLR,,0.00,WeatherDisplay:10.37,2013-06-21 10:58:00,
2013-06-21 04:03:00,44.8,32.1,30.11,West,270,1.2,0.0,61,0.00,CLR,,0.00,WeatherDisplay:10.37,2013-06-21 11:03:00,
2013-06-21 04:08:00,45.0,32.3,30.11,West,270,0.0,0.0,61,0.00,CLR,,0.00,WeatherDisplay:10.37,2013-06-21 11:08:00,
2013-06-21 04:13:00,45.0,32.3,30.11,SW,225,0.0,0.0,61,0.00,CLR,,0.00,WeatherDisplay:10.37,2013-06-21 11:13:00,
2013-06-21 04:18:00,45.0,32.3,30.11,SW,225,0.0,0.0,61,0.00,CLR,,0.00,WeatherDisplay:10.37,2013-06-21 11:18:00,
2013-06-21 04:23:00,45.0,32.3,30.11,SW,225,0.0,0.0,61,0.00,CLR,,0.00,WeatherDisplay:10.37,2013-06-21 11:23:00,
2013-06-21 04:28:00,45.0,32.7,30.11,SW,225,1.2,0.0,62,0.00,CLR,,0.00,WeatherDisplay:10.37,2013-06-21 11:28:00,
2013-06-21 04:33:00,45.0,32.7,30.11,SW,225,0.0,0.0,62,0.00,CLR,,0.00,WeatherDisplay:10.37,2013-06-21 11:33:00,
2013-06-21 04:38:00,45.1,32.9,30.12,SW,225,0.0,0.0,62,0.00,CLR,,0.00,WeatherDisplay:10.37,2013-06-21 11:38:00,
2013-06-21 04:43:00,45.1,32.9,30.11,South,180,1.2,0.0,62,0.00,CLR,,0.00,WeatherDisplay:10.37,2013-06-21 11:43:00,
2013-06-21 04:48:00,45.1,32.9,30.11,West,270,1.2,0.0,62,0.00,CLR,,0.00,WeatherDisplay:10.37,2013-06-21 11:48:00,
2013-06-21 04:53:00,45.3,33.1,30.11,West,270,0.0,0.0,62,0.00,CLR,,0.00,WeatherDisplay:10.37,2013-06-21 11:53:00,
2013-06-21 04:58:00,45.3,33.5,30.11,SW,225,0.0,0.0,63,0.00,CLR,,0.00,WeatherDisplay:10.37,2013-06-21 11:58:00,
2013-06-21 05:03:00,45.3,33.5,30.12,SW,225,0.0,0.0,63,0.00,CLR,,0.00,WeatherDisplay:10.37,2013-06-21 12:03:00,
2013-06-21 05:08:00,45.3,33.5,30.12,West,270,0.0,0.0,63,0.00,CLR,,0.00,WeatherDisplay:10.37,2013-06-21 12:08:00,
2013-06-21 05:13:00,45.3,33.5,30.12,West,270,0.0,0.0,63,0.00,CLR,,0.00,WeatherDisplay:10.37,2013-06-21 12:13:00,
2013-06-21 05:18:00,45.3,33.5,30.12,West,270,0.0,0.0,63,0.00,CLR,,0.00,WeatherDisplay:10.37,2013-06-21 12:18:00,
2013-06-21 05:23:00,45.3,33.5,30.11,West,270,0.0,0.0,63,0.00,CLR,,0.00,WeatherDisplay:10.37,2013-06-21 12:23:00,
2013-06-21 05:28:00,45.3,33.5,30.11,West,270,0.0,0.0,63,0.00,CLR,,0.00,WeatherDisplay:10.37,2013-06-21 12:28:00,
2013-06-21 05:33:00,45.5,33.6,30.11,West,270,0.0,0.0,63,0.00,CLR,,0.00,WeatherDisplay:10.37,2013-06-21 12:33:00,
2013-06-21 05:38:00,45.5,33.6,30.12,SW,225,0.0,0.0,63,0.00,CLR,,0.00,WeatherDisplay:10.37,2013-06-21 12:38:00,
2013-06-21 05:43:00,45.3,33.5,30.12,SW,225,0.0,0.0,63,0.00,CLR,,0.00,WeatherDisplay:10.37,2013-06-21 12:43:00,
2013-06-21 05:48:00,45.5,34.0,30.12,SW,225,0.0,0.0,64,0.00,CLR,,0.00,WeatherDisplay:10.37,2013-06-21 12:48:00,
2013-06-21 05:53:00,45.5,34.0,30.12,SW,225,0.0,0.0,64,0.00,CLR,,0.00,WeatherDisplay:10.37,2013-06-21 12:53:00,
2013-06-21 05:58:00,45.7,34.2,30.12,SW,225,0.0,0.0,64,0.00,CLR,,0.00,WeatherDisplay:10.37,2013-06-21 12:58:00,
2013-06-21 06:03:00,45.9,34.4,30.12,West,270,0.0,0.0,64,0.00,CLR,,0.00,WeatherDisplay:10.37,2013-06-21 13:03:00,
2013-06-21 06:08:00,46.0,34.5,30.13,South,180,0.0,0.0,64,0.00,CLR,,0.00,WeatherDisplay:10.37,2013-06-21 13:08:00,
2013-06-21 06:13:00,46.2,34.7,30.13,South,180,0.0,0.0,64,0.00,CLR,,0.00,WeatherDisplay:10.37,2013-06-21 13:13:00,
2013-06-21 06:18:00,46.6,35.4,30.12,West,270,0.0,0.0,65,0.00,CLR,,0.00,WeatherDisplay:10.37,2013-06-21 13:18:00,
2013-06-21 06:23:00,46.9,35.8,30.13,NW,315,0.0,0.0,65,0.00,CLR,,0.00,WeatherDisplay:10.37,2013-06-21 13:23:00,
2013-06-21 06:28:00,47.3,36.1,30.13,SW,225,0.0,0.0,65,0.00,CLR,,0.00,WeatherDisplay:10.37,2013-06-21 13:28:00,
2013-06-21 07:18:00,56.3,44.7,30.14,West,270,0.0,0.0,65,0.00,CLR,,0.00,WeatherDisplay:10.37,2013-06-21 14:18:00,
2013-06-21 07:23:00,59.4,44.1,30.14,SW,225,0.0,0.0,57,0.00,CLR,,0.00,WeatherDisplay:10.37,2013-06-21 14:23:00,
2013-06-21 07:28:00,62.6,41.5,30.14,SW,225,0.0,0.0,46,0.00,CLR,,0.00,WeatherDisplay:10.37,2013-06-21 14:28:00,
2013-06-21 07:33:00,65.7,35.0,30.14,SW,225,0.0,0.0,32,0.00,CLR,,0.00,WeatherDisplay:10.37,2013-06-21 14:33:00,
2013-06-21 07:38:00,68.2,9.5,30.14,SE,135,0.0,0.0,10,0.00,CLR,,0.00,WeatherDisplay:10.37,2013-06-21 14:38:00,
2013-06-21 07:43:00,68.7,9.9,30.14,South,180,0.0,0.0,10,0.00,CLR,,0.00,WeatherDisplay:10.37,2013-06-21 14:43:00,
2013-06-21 07:48:00,69.6,10.6,30.13,South,180,0.0,0.0,10,0.00,CLR,,0.00,WeatherDisplay:10.37,2013-06-21 14:48:00,
2013-06-21 07:53:00,69.8,10.7,30.13,South,180,0.0,0.0,10,0.00,CLR,,0.00,WeatherDisplay:10.37,2013-06-21 14:53:00,
2013-06-21 07:58:00,69.3,10.3,30.13,SW,225,1.2,0.0,10,0.00,CLR,,0.00,WeatherDisplay:10.37,2013-06-21 14:58:00,
2013-06-21 08:03:00,68.2,9.5,30.13,SW,225,2.3,2.3,10,0.00,CLR,,0.00,WeatherDisplay:10.37,2013-06-21 15:03:00,
2013-06-21 08:08:00,66.7,8.3,30.13,South,180,2.3,2.3,10,0.00,CLR,,0.00,WeatherDisplay:10.37,2013-06-21 15:08:00,
2013-06-21 08:14:00,67.3,8.8,30.13,South,180,1.2,0.0,10,0.00,CLR,,0.00,WeatherDisplay:10.37,2013-06-21 15:14:00,
2013-06-21 08:19:00,67.6,9.0,30.13,South,180,3.5,3.5,10,0.00,CLR,,0.00,WeatherDisplay:10.37,2013-06-21 15:19:00,
2013-06-21 08:24:00,66.2,7.9,30.13,South,180,2.3,2.3,10,0.00,CLR,,0.00,WeatherDisplay:10.37,2013-06-21 15:24:00,
2013-06-21 08:29:00,66.4,8.1,30.13,NE,45,1.2,0.0,10,0.00,CLR,,0.00,WeatherDisplay:10.37,2013-06-21 15:29:00,
2013-06-21 08:34:00,68.5,9.7,30.13,South,180,1.2,0.0,10,0.00,CLR,,0.00,WeatherDisplay:10.37,2013-06-21 15:34:00,
2013-06-21 08:39:00,69.8,10.7,30.13,NE,45,3.5,3.5,10,0.00,CLR,,0.00,WeatherDisplay:10.37,2013-06-21 15:39:00,
2013-06-21 08:44:00,70.5,11.2,30.13,SE,135,3.5,3.5,10,0.00,CLR,,0.00,WeatherDisplay:10.37,2013-06-21 15:44:00,
2013-06-21 08:49:00,70.2,11.0,30.13,NW,315,3.5,3.5,10,0.00,CLR,,0.00,WeatherDisplay:10.37,2013-06-21 15:49:00,
2013-06-21 08:54:00,71.1,11.7,30.13,East,90,2.3,0.0,10,0.00,CLR,,0.00,WeatherDisplay:10.37,2013-06-21 15:54:00,
2013-06-21 08:59:00,71.4,11.9,30.13,SE,135,3.5,0.0,10,0.00,CLR,,0.00,WeatherDisplay:10.37,2013-06-21 15:59:00,
2013-06-21 09:04:00,72.1,12.5,30.13,North,0,2.3,0.0,10,0.00,CLR,,0.00,WeatherDisplay:10.37,2013-06-21 16:04:00,
2013-06-21 09:09:00,72.7,12.9,30.13,NE,45,4.6,4.6,10,0.00,CLR,,0.00,WeatherDisplay:10.37,2013-06-21 16:09:00,
2013-06-21 09:14:00,71.8,12.2,30.13,East,90,4.6,0.0,10,0.00,CLR,,0.00,WeatherDisplay:10.37,2013-06-21 16:14:00,
2013-06-21 09:19:00,72.0,12.4,30.13,North,0,4.6,4.6,10,0.00,CLR,,0.00,WeatherDisplay:10.37,2013-06-21 16:19:00,
2013-06-21 09:24:00,73.0,13.2,30.14,NW,315,4.6,4.6,10,0.00,CLR,,0.00,WeatherDisplay:10.37,2013-06-21 16:24:00,
2013-06-21 09:29:00,72.9,13.0,30.13,East,90,5.8,5.8,10,0.00,CLR,,0.00,WeatherDisplay:10.37,2013-06-21 16:29:00,
2013-06-21 09:34:00,72.1,12.5,30.13,East,90,4.6,0.0,10,0.00,CLR,,0.00,WeatherDisplay:10.37,2013-06-21 16:34:00,
2013-06-21 09:40:00,72.7,12.9,30.13,East,90,4.6,4.6,10,0.00,CLR,,0.00,WeatherDisplay:10.37,2013-06-21 16:40:00,
2013-06-21 09:45:00,74.1,14.0,30.13,East,90,2.3,2.3,10,0.00,CLR,,0.00,WeatherDisplay:10.37,2013-06-21 16:45:00,
2013-06-21 09:50:00,73.6,13.6,30.13,SE,135,3.5,3.5,10,0.00,CLR,,0.00,WeatherDisplay:10.37,2013-06-21 16:50:00,
2013-06-21 09:55:00,74.5,14.3,30.13,NE,45,3.5,3.5,10,0.00,CLR,,0.00,WeatherDisplay:10.37,2013-06-21 16:55:00,
2013-06-21 10:00:00,74.1,14.0,30.13,NE,45,4.6,4.6,10,0.00,CLR,,0.00,WeatherDisplay:10.37,2013-06-21 17:00:00,
2013-06-21 10:05:00,74.5,14.3,30.13,NW,315,4.6,4.6,10,0.00,CLR,,0.00,WeatherDisplay:10.37,2013-06-21 17:05:00,
2013-06-21 10:12:00,74.5,14.3,30.13,East,90,3.5,3.5,10,0.00,CLR,,0.00,WeatherDisplay:10.37,2013-06-21 17:12:00,
2013-06-21 10:17:00,75.4,15.0,30.13,NE,45,3.5,3.5,10,0.00,CLR,,0.00,WeatherDisplay:10.37,2013-06-21 17:17:00,
2013-06-21 10:22:00,74.1,14.0,30.12,North,0,3.5,0.0,10,0.00,CLR,,0.00,WeatherDisplay:10.37,2013-06-21 17:22:00,
2013-06-21 10:27:00,75.4,15.0,30.13,NE,45,5.8,5.8,10,0.00,CLR,,0.00,WeatherDisplay:10.37,2013-06-21 17:27:00,
2013-06-21 10:33:00,76.1,15.5,30.13,NW,315,5.8,5.8,10,0.00,CLR,,0.00,WeatherDisplay:10.37,2013-06-21 17:33:00,
2013-06-21 10:39:00,76.3,15.7,30.12,NW,315,5.8,5.8,10,0.00,CLR,,0.00,WeatherDisplay:10.37,2013-06-21 17:39:00,
2013-06-21 10:44:00,75.4,15.0,30.12,East,90,4.6,4.6,10,0.00,CLR,,0.00,WeatherDisplay:10.37,2013-06-21 17:44:00,
2013-06-21 10:46:00,74.8,14.6,30.12,North,0,3.5,3.5,10,0.00,CLR,,0.00,WeatherDisplay:10.37,2013-06-21 17:46:00,
2013-06-21 10:48:00,74.5,14.3,30.12,NE,45,5.8,5.8,10,0.00,CLR,,0.00,WeatherDisplay:10.37,2013-06-21 17:48:00,
2013-06-21 10:49:00,74.7,14.4,30.12,SW,225,5.8,0.0,10,0.00,CLR,,0.00,WeatherDisplay:10.37,2013-06-21 17:49:00,
2013-06-21 10:54:00,77.2,16.3,30.12,SE,135,5.8,5.8,10,0.00,CLR,,0.00,WeatherDisplay:10.37,2013-06-21 17:54:00,
2013-06-21 10:59:00,77.4,16.5,30.12,East,90,5.8,5.8,10,0.00,CLR,,0.00,WeatherDisplay:10.37,2013-06-21 17:59:00,
2013-06-21 11:05:00,77.4,16.5,30.12,North,0,3.5,3.5,10,0.00,CLR,,0.00,WeatherDisplay:10.37,2013-06-21 18:05:00,
2013-06-21 11:10:00,75.4,15.0,30.12,NW,315,5.8,5.8,10,0.00,CLR,,0.00,WeatherDisplay:10.37,2013-06-21 18:10:00,
2013-06-21 11:15:00,75.4,15.0,30.12,West,270,5.8,5.8,10,0.00,CLR,,0.00,WeatherDisplay:10.37,2013-06-21 18:15:00,
2013-06-21 11:21:00,74.8,14.6,30.12,SW,225,4.6,4.6,10,0.00,CLR,,0.00,WeatherDisplay:10.37,2013-06-21 18:21:00,
2013-06-21 11:23:00,73.8,13.7,30.12,NW,315,5.8,5.8,10,0.00,CLR,,0.00,WeatherDisplay:10.37,2013-06-21 18:23:00,
2013-06-21 11:24:00,73.8,13.7,30.12,NW,315,5.8,5.8,10,0.00,CLR,,0.00,WeatherDisplay:10.37,2013-06-21 18:24:00,
2013-06-21 11:25:00,73.4,13.5,30.12,North,0,5.8,5.8,10,0.00,CLR,,0.00,WeatherDisplay:10.37,2013-06-21 18:25:00,
2013-06-21 11:26:00,73.6,13.6,30.12,NW,315,3.5,3.5,10,0.00,CLR,,0.00,WeatherDisplay:10.37,2013-06-21 18:26:00,
2013-06-21 11:31:00,72.9,13.0,30.12,West,270,4.6,4.6,10,0.00,CLR,,0.00,WeatherDisplay:10.37,2013-06-21 18:31:00,
2013-06-21 11:36:00,72.7,12.9,30.12,East,90,6.9,6.9,10,0.00,CLR,,0.00,WeatherDisplay:10.37,2013-06-21 18:36:00,
2013-06-21 11:41:00,74.3,14.1,30.13,West,270,4.6,0.0,10,0.00,CLR,,0.00,WeatherDisplay:10.37,2013-06-21 18:41:00,
2013-06-21 11:45:00,75.6,15.1,30.13,South,180,8.1,8.1,10,0.00,CLR,,0.00,WeatherDisplay:10.37,2013-06-21 18:45:00,
2013-06-21 11:47:00,75.4,15.0,30.13,North,0,8.1,8.1,10,0.00,CLR,,0.00,WeatherDisplay:10.37,2013-06-21 18:47:00,
2013-06-21 11:48:00,75.2,14.8,30.12,West,270,11.5,11.5,10,0.00,CLR,,0.00,WeatherDisplay:10.37,2013-06-21 18:48:00,
2013-06-21 11:49:00,74.8,14.6,30.13,NW,315,8.1,8.1,10,0.00,CLR,,0.00,WeatherDisplay:10.37,2013-06-21 18:49:00,
2013-06-21 11:51:00,74.7,14.4,30.13,West,270,3.5,3.5,10,0.00,CLR,,0.00,WeatherDisplay:10.37,2013-06-21 18:51:00,
2013-06-21 11:56:00,74.5,14.3,30.13,SW,225,5.8,5.8,10,0.00,CLR,,0.00,WeatherDisplay:10.37,2013-06-21 18:56:00,
2013-06-21 12:01:00,75.6,15.1,30.13,West,270,3.5,3.5,10,0.00,CLR,,0.00,WeatherDisplay:10.37,2013-06-21 19:01:00,
2013-06-21 12:06:00,75.9,15.4,30.12,NW,315,5.8,5.8,10,0.00,CLR,,0.00,WeatherDisplay:10.37,2013-06-21 19:06:00,
2013-06-21 12:11:00,75.4,15.0,30.12,NW,315,9.2,9.2,10,0.00,CLR,,0.00,WeatherDisplay:10.37,2013-06-21 19:11:00,
2013-06-21 12:17:00,75.2,14.8,30.12,NW,315,6.9,6.9,10,0.00,CLR,,0.00,WeatherDisplay:10.37,2013-06-21 19:17:00,
2013-06-21 12:20:00,74.7,14.4,30.12,NW,315,10.4,10.4,10,0.00,CLR,,0.00,WeatherDisplay:10.37,2013-06-21 19:20:00,
2013-06-21 12:25:00,75.6,15.1,30.13,West,270,10.4,10.4,10,0.00,CLR,,0.00,WeatherDisplay:10.37,2013-06-21 19:25:00,
2013-06-21 12:30:00,75.2,14.8,30.12,NW,315,8.1,8.1,10,0.00,CLR,,0.00,WeatherDisplay:10.37,2013-06-21 19:30:00,
2013-06-21 12:35:00,75.9,15.4,30.12,SW,225,5.8,5.8,10,0.00,CLR,,0.00,WeatherDisplay:10.37,2013-06-21 19:35:00,
2013-06-21 12:40:00,75.4,15.0,30.12,West,270,6.9,6.9,10,0.00,CLR,,0.00,WeatherDisplay:10.37,2013-06-21 19:40:00,
2013-06-21 12:42:00,75.4,15.0,30.12,NW,315,6.9,6.9,10,0.00,CLR,,0.00,WeatherDisplay:10.37,2013-06-21 19:42:00,
2013-06-21 12:43:00,75.6,15.1,30.12,SW,225,4.6,4.6,10,0.00,CLR,,0.00,WeatherDisplay:10.37,2013-06-21 19:43:00,
2013-06-21 12:48:00,75.0,14.7,30.12,East,90,9.2,9.2,10,0.00,CLR,,0.00,WeatherDisplay:10.37,2013-06-21 19:48:00,
2013-06-21 12:53:00,75.9,15.4,30.12,SE,135,6.0,6.0,10,0.00,CLR,,0.00,WeatherDisplay:10.37,2013-06-21 19:53:00,
2013-06-21 12:58:00,75.9,15.4,30.12,South,180,6.9,6.9,10,0.00,CLR,,0.00,WeatherDisplay:10.37,2013-06-21 19:58:00,
2013-06-21 13:03:00,75.9,15.4,30.12,North,0,13.8,13.8,10,0.00,CLR,,0.00,WeatherDisplay:10.37,2013-06-21 20:03:00,
2013-06-21 13:09:00,74.5,14.3,30.12,North,0,8.1,8.1,10,0.00,CLR,,0.00,WeatherDisplay:10.37,2013-06-21 20:09:00,
2013-06-21 13:13:00,75.2,14.8,30.12,West,270,3.5,3.5,10,0.00,CLR,,0.00,WeatherDisplay:10.37,2013-06-21 20:13:00,
2013-06-21 13:18:00,74.7,14.4,30.12,NW,315,6.9,6.9,10,0.00,CLR,,0.00,WeatherDisplay:10.37,2013-06-21 20:18:00,
2013-06-21 13:23:00,75.0,14.7,30.11,East,90,3.5,3.5,10,0.00,CLR,,0.00,WeatherDisplay:10.37,2013-06-21 20:23:00,
2013-06-21 13:28:00,75.2,14.8,30.11,NW,315,10.4,10.4,10,0.00,CLR,,0.00,WeatherDisplay:10.37,2013-06-21 20:28:00,
2013-06-21 13:33:00,75.2,14.8,30.12,North,0,8.1,8.1,10,0.00,CLR,,0.00,WeatherDisplay:10.37,2013-06-21 20:33:00,
2013-06-21 13:38:00,75.0,14.7,30.11,NW,315,9.2,9.2,10,0.00,CLR,,0.00,WeatherDisplay:10.37,2013-06-21 20:38:00,
2013-06-21 13:44:00,75.7,15.2,30.12,East,90,11.5,11.5,10,0.00,CLR,,0.00,WeatherDisplay:10.37,2013-06-21 20:44:00,
2013-06-21 13:49:00,73.6,13.6,30.12,West,270,12.7,12.7,10,0.00,CLR,,0.00,WeatherDisplay:10.37,2013-06-21 20:49:00,
2013-06-21 13:54:00,73.0,13.2,30.11,SW,225,12.7,12.7,10,0.00,CLR,,0.00,WeatherDisplay:10.37,2013-06-21 20:54:00,
2013-06-21 13:59:00,72.3,12.6,30.12,North,0,15.0,15.0,10,0.00,CLR,,0.00,WeatherDisplay:10.37,2013-06-21 20:59:00,
2013-06-21 14:04:00,73.4,13.5,30.12,West,270,5.8,5.8,10,0.00,CLR,,0.00,WeatherDisplay:10.37,2013-06-21 21:04:00,
2013-06-21 14:05:00,73.8,13.7,30.12,West,270,12.7,12.7,10,0.00,CLR,,0.00,WeatherDisplay:10.37,2013-06-21 21:05:00,
2013-06-21 14:10:00,73.2,13.3,30.12,West,270,11.5,11.5,10,0.00,CLR,,0.00,WeatherDisplay:10.37,2013-06-21 21:10:00,
2013-06-21 14:15:00,71.6,12.1,30.12,SE,135,16.1,16.1,10,0.00,CLR,,0.00,WeatherDisplay:10.37,2013-06-21 21:15:00,
2013-06-21 14:20:00,72.5,12.8,30.12,West,270,10.4,10.4,10,0.00,CLR,,0.00,WeatherDisplay:10.37,2013-06-21 21:20:00,
2013-06-21 14:25:00,73.0,13.2,30.12,NW,315,11.5,11.5,10,0.00,CLR,,0.00,WeatherDisplay:10.37,2013-06-21 21:25:00,
2013-06-21 14:31:00,73.4,13.5,30.12,West,270,10.4,10.4,10,0.00,CLR,,0.00,WeatherDisplay:10.37,2013-06-21 21:31:00,
2013-06-21 14:35:00,73.9,13.9,30.12,SW,225,8.1,0.0,10,0.00,CLR,,0.00,WeatherDisplay:10.37,2013-06-21 21:35:00,
2013-06-21 14:41:00,73.9,13.9,30.12,SW,225,11.5,11.5,10,0.00,CLR,,0.00,WeatherDisplay:10.37,2013-06-21 21:41:00,
2013-06-21 14:46:00,74.1,14.0,30.12,South,180,10.4,10.4,10,0.00,CLR,,0.00,WeatherDisplay:10.37,2013-06-21 21:46:00,
2013-06-21 14:52:00,74.3,14.1,30.12,West,270,9.2,9.2,10,0.00,CLR,,0.00,WeatherDisplay:10.37,2013-06-21 21:52:00,
2013-06-21 14:57:00,74.1,14.0,30.12,West,270,8.1,8.1,10,0.00,CLR,,0.00,WeatherDisplay:10.37,2013-06-21 21:57:00,
2013-06-21 15:02:00,73.9,13.9,30.11,SW,225,12.7,12.7,10,0.00,CLR,,0.00,WeatherDisplay:10.37,2013-06-21 22:02:00,
2013-06-21 15:07:00,74.5,14.3,30.12,NW,315,6.9,6.9,10,0.00,CLR,,0.00,WeatherDisplay:10.37,2013-06-21 22:07:00,
2013-06-21 15:12:00,75.0,14.7,30.11,SW,225,9.2,9.2,10,0.00,CLR,,0.00,WeatherDisplay:10.37,2013-06-21 22:12:00,
2013-06-21 15:17:00,75.2,14.8,30.11,NW,315,10.4,10.4,10,0.00,CLR,,0.00,WeatherDisplay:10.37,2013-06-21 22:17:00,
2013-06-21 15:22:00,74.3,14.1,30.12,South,180,8.1,8.1,10,0.00,CLR,,0.00,WeatherDisplay:10.37,2013-06-21 22:22:00,
2013-06-21 15:27:00,73.8,13.7,30.11,South,180,10.4,10.4,10,0.00,CLR,,0.00,WeatherDisplay:10.37,2013-06-21 22:27:00,
2013-06-21 15:32:00,74.3,14.1,30.11,West,270,12.7,12.7,10,0.00,CLR,,0.00,WeatherDisplay:10.37,2013-06-21 22:32:00,
2013-06-21 15:37:00,74.5,14.3,30.11,North,0,10.4,10.4,10,0.00,CLR,,0.00,WeatherDisplay:10.37,2013-06-21 22:37:00,
2013-06-21 15:42:00,74.3,14.1,30.11,North,0,9.2,9.2,10,0.00,CLR,,0.00,WeatherDisplay:10.37,2013-06-21 22:42:00,
2013-06-21 15:47:00,74.5,14.3,30.11,NE,45,5.8,5.8,10,0.00,CLR,,0.00,WeatherDisplay:10.37,2013-06-21 22:47:00,
2013-06-21 15:52:00,74.5,14.3,30.11,West,270,3.5,3.5,10,0.00,CLR,,0.00,WeatherDisplay:10.37,2013-06-21 22:52:00,
2013-06-21 15:57:00,74.1,14.0,30.10,West,270,9.2,9.2,10,0.00,CLR,,0.00,WeatherDisplay:10.37,2013-06-21 22:57:00,
2013-06-21 16:03:00,73.0,13.2,30.11,West,270,12.7,12.7,10,0.00,CLR,,0.00,WeatherDisplay:10.37,2013-06-21 23:03:00,
2013-06-21 16:08:00,73.2,13.3,30.10,NW,315,10.4,10.4,10,0.00,CLR,,0.00,WeatherDisplay:10.37,2013-06-21 23:08:00,
2013-06-21 16:13:00,73.6,13.6,30.10,North,0,5.8,5.8,10,0.00,CLR,,0.00,WeatherDisplay:10.37,2013-06-21 23:13:00,
2013-06-21 16:18:00,74.7,14.4,30.10,West,270,10.4,10.4,10,0.00,CLR,,0.00,WeatherDisplay:10.37,2013-06-21 23:18:00,
2013-06-21 16:23:00,75.2,14.8,30.10,North,0,5.8,5.8,10,0.00,CLR,,0.00,WeatherDisplay:10.37,2013-06-21 23:23:00,
2013-06-21 16:28:00,75.0,14.7,30.10,SE,135,10.4,10.4,10,0.00,CLR,,0.00,WeatherDisplay:10.37,2013-06-21 23:28:00,
2013-06-21 16:33:00,74.5,14.3,30.10,SW,225,5.8,6.0,10,0.00,CLR,,0.00,WeatherDisplay:10.37,2013-06-21 23:33:00,
2013-06-21 16:38:00,74.5,14.3,30.10,SE,135,4.6,4.6,10,0.00,CLR,,0.00,WeatherDisplay:10.37,2013-06-21 23:38:00,
2013-06-21 16:43:00,74.5,14.3,30.10,North,0,4.6,0.0,10,0.00,CLR,,0.00,WeatherDisplay:10.37,2013-06-21 23:43:00,
2013-06-21 16:48:00,74.8,14.6,30.10,NW,315,3.5,3.5,10,0.00,CLR,,0.00,WeatherDisplay:10.37,2013-06-21 23:48:00,
2013-06-21 16:53:00,75.0,14.7,30.10,South,180,4.6,0.0,10,0.00,CLR,,0.00,WeatherDisplay:10.37,2013-06-21 23:53:00,
2013-06-21 16:58:00,75.4,15.0,30.10,West,270,6.0,6.0,10,0.00,CLR,,0.00,WeatherDisplay:10.37,2013-06-21 23:58:00,
2013-06-21 17:03:00,75.2,14.8,30.10,East,90,6.9,6.9,10,0.00,CLR,,0.00,WeatherDisplay:10.37,2013-06-22 00:03:00,
2013-06-21 17:08:00,74.8,14.6,30.10,West,270,5.8,5.8,10,0.00,CLR,,0.00,WeatherDisplay:10.37,2013-06-22 00:08:00,
2013-06-21 17:13:00,75.2,14.8,30.10,NW,315,6.9,6.9,10,0.00,CLR,,0.00,WeatherDisplay:10.37,2013-06-22 00:13:00,
2013-06-21 17:18:00,74.5,14.3,30.10,NE,45,4.6,4.6,10,0.00,CLR,,0.00,WeatherDisplay:10.37,2013-06-22 00:18:00,
2013-06-21 17:23:00,74.8,14.6,30.09,NW,315,8.1,8.1,10,0.00,CLR,,0.00,WeatherDisplay:10.37,2013-06-22 00:23:00,
2013-06-21 17:28:00,75.2,14.8,30.10,NE,45,3.5,3.5,10,0.00,CLR,,0.00,WeatherDisplay:10.37,2013-06-22 00:28:00,
2013-06-21 17:33:00,75.4,15.0,30.09,NW,315,4.6,4.6,10,0.00,CLR,,0.00,WeatherDisplay:10.37,2013-06-22 00:33:00,
2013-06-21 17:38:00,75.6,15.1,30.09,WSW,248,8.1,8.1,10,0.00,CLR,,0.00,WeatherDisplay:10.37,2013-06-22 00:38:00,
2013-06-21 17:43:00,74.3,14.1,30.10,North,0,12.7,12.7,10,0.00,CLR,,0.00,WeatherDisplay:10.37,2013-06-22 00:43:00,
2013-06-21 17:48:00,73.4,13.5,30.09,West,270,10.4,10.4,10,0.00,CLR,,0.00,WeatherDisplay:10.37,2013-06-22 00:48:00,
2013-06-21 17:53:00,73.2,13.3,30.09,NW,315,5.8,0.0,10,0.00,CLR,,0.00,WeatherDisplay:10.37,2013-06-22 00:53:00,
2013-06-21 17:58:00,74.3,14.1,30.10,SSE,158,5.8,5.8,10,0.00,CLR,,0.00,WeatherDisplay:10.37,2013-06-22 00:58:00,
2013-06-21 18:03:00,73.2,13.3,30.10,NE,45,9.2,9.2,10,0.00,CLR,,0.00,WeatherDisplay:10.37,2013-06-22 01:03:00,
2013-06-21 18:08:00,72.5,12.8,30.10,WNW,292,10.4,10.4,10,0.00,CLR,,0.00,WeatherDisplay:10.37,2013-06-22 01:08:00,
2013-06-21 18:13:00,72.5,12.8,30.10,NW,315,4.6,4.6,10,0.00,CLR,,0.00,WeatherDisplay:10.37,2013-06-22 01:13:00,
2013-06-21 18:18:00,72.7,12.9,30.10,West,270,9.2,9.2,10,0.00,CLR,,0.00,WeatherDisplay:10.37,2013-06-22 01:18:00,
2013-06-21 18:23:00,72.5,12.8,30.10,South,180,4.6,4.6,10,0.00,CLR,,0.00,WeatherDisplay:10.37,2013-06-22 01:23:00,
2013-06-21 18:28:00,72.1,12.5,30.10,NW,315,8.1,8.1,10,0.00,CLR,,0.00,WeatherDisplay:10.37,2013-06-22 01:28:00,
2013-06-21 18:33:00,71.4,11.9,30.10,West,270,9.2,9.2,10,0.00,CLR,,0.00,WeatherDisplay:10.37,2013-06-22 01:33:00,
2013-06-21 18:38:00,71.1,11.7,30.10,SW,225,12.7,12.7,10,0.00,CLR,,0.00,WeatherDisplay:10.37,2013-06-22 01:38:00,
2013-06-21 18:43:00,70.5,11.2,30.10,SW,225,10.4,10.4,10,0.00,CLR,,0.00,WeatherDisplay:10.37,2013-06-22 01:43:00,
2013-06-21 18:48:00,70.3,11.1,30.10,NW,315,10.4,10.4,10,0.00,CLR,,0.00,WeatherDisplay:10.37,2013-06-22 01:48:00,
2013-06-21 18:53:00,70.2,11.0,30.10,NE,45,5.8,5.8,10,0.00,CLR,,0.00,WeatherDisplay:10.37,2013-06-22 01:53:00,
2013-06-21 18:58:00,70.3,11.1,30.10,NW,315,3.5,3.5,10,0.00,CLR,,0.00,WeatherDisplay:10.37,2013-06-22 01:58:00,
2013-06-21 19:03:00,70.7,11.4,30.10,North,0,6.9,6.9,10,0.00,CLR,,0.00,WeatherDisplay:10.37,2013-06-22 02:03:00,
2013-06-21 19:08:00,70.2,11.0,30.10,NW,315,8.1,8.1,10,0.00,CLR,,0.00,WeatherDisplay:10.37,2013-06-22 02:08:00,
2013-06-21 19:13:00,70.0,10.8,30.10,West,270,6.9,6.9,10,0.00,CLR,,0.00,WeatherDisplay:10.37,2013-06-22 02:13:00,
2013-06-21 19:18:00,69.4,10.4,30.10,NW,315,5.8,5.8,10,0.00,CLR,,0.00,WeatherDisplay:10.37,2013-06-22 02:18:00,
2013-06-21 19:23:00,69.6,10.6,30.10,WNW,292,6.9,6.9,10,0.00,CLR,,0.00,WeatherDisplay:10.37,2013-06-22 02:23:00,
2013-06-21 19:28:00,69.4,10.4,30.10,NW,315,8.1,8.1,10,0.00,CLR,,0.00,WeatherDisplay:10.37,2013-06-22 02:28:00,
2013-06-21 19:33:00,69.8,10.7,30.10,South,180,2.3,2.3,10,0.00,CLR,,0.00,WeatherDisplay:10.37,2013-06-22 02:33:00,
2013-06-21 19:38:00,70.2,11.0,30.10,NW,315,2.3,2.3,10,0.00,CLR,,0.00,WeatherDisplay:10.37,2013-06-22 02:38:00,
2013-06-21 19:43:00,70.0,10.8,30.10,North,0,5.8,5.8,10,0.00,CLR,,0.00,WeatherDisplay:10.37,2013-06-22 02:43:00,
2013-06-21 19:48:00,70.0,10.8,30.10,NE,45,3.5,0.0,10,0.00,CLR,,0.00,WeatherDisplay:10.37,2013-06-22 02:48:00,
2013-06-21 19:53:00,69.4,10.4,30.10,East,90,3.5,0.0,10,0.00,CLR,,0.00,WeatherDisplay:10.37,2013-06-22 02:53:00,
2013-06-21 19:58:00,68.9,10.0,30.10,NE,45,4.6,4.6,10,0.00,CLR,,0.00,WeatherDisplay:10.37,2013-06-22 02:58:00,
2013-06-21 20:03:00,67.6,9.0,30.10,SW,225,2.3,2.3,10,0.00,CLR,,0.00,WeatherDisplay:10.37,2013-06-22 03:03:00,
2013-06-21 20:08:00,66.7,8.3,30.10,NE,45,4.6,4.6,10,0.00,CLR,,0.00,WeatherDisplay:10.37,2013-06-22 03:08:00,
2013-06-21 20:13:00,65.3,7.2,30.09,NW,315,3.5,3.5,10,0.00,CLR,,0.00,WeatherDisplay:10.37,2013-06-22 03:13:00,
2013-06-21 20:18:00,63.7,6.0,30.10,NW,315,3.8,3.8,10,0.00,CLR,,0.00,WeatherDisplay:10.37,2013-06-22 03:18:00,
2013-06-21 20:23:00,62.6,5.2,30.10,NE,45,9.2,9.2,10,0.00,CLR,,0.00,WeatherDisplay:10.37,2013-06-22 03:23:00,
2013-06-21 20:28:00,61.7,4.5,30.10,West,270,8.1,0.0,10,0.00,CLR,,0.00,WeatherDisplay:10.37,2013-06-22 03:28:00,
2013-06-21 20:33:00,61.2,4.1,30.10,NW,315,3.5,3.5,10,0.00,CLR,,0.00,WeatherDisplay:10.37,2013-06-22 03:33:00,
2013-06-21 20:38:00,60.6,3.6,30.10,West,270,1.2,1.2,10,0.00,CLR,,0.00,WeatherDisplay:10.37,2013-06-22 03:38:00,
2013-06-21 20:43:00,60.3,3.4,30.10,North,0,3.5,3.5,10,0.00,CLR,,0.00,WeatherDisplay:10.37,2013-06-22 03:43:00,
2013-06-21 20:48:00,59.9,3.1,30.09,NW,315,2.3,0.0,10,0.00,CLR,,0.00,WeatherDisplay:10.37,2013-06-22 03:48:00,
2013-06-21 20:53:00,59.5,2.8,30.10,NW,315,2.3,0.0,10,0.00,CLR,,0.00,WeatherDisplay:10.37,2013-06-22 03:53:00,
2013-06-21 20:58:00,59.2,2.5,30.09,NW,315,1.2,1.2,10,0.00,CLR,,0.00,WeatherDisplay:10.37,2013-06-22 03:58:00,
2013-06-21 21:01:00,59.0,2.4,30.09,West,270,2.3,2.3,10,0.00,CLR,,0.00,WeatherDisplay:10.37,2013-06-22 04:01:00,
2013-06-21 21:02:00,59.0,2.4,30.09,West,270,2.3,0.0,10,0.00,CLR,,0.00,WeatherDisplay:10.37,2013-06-22 04:02:00,
2013-06-21 21:03:00,58.8,2.3,30.10,NW,315,2.3,0.0,10,0.00,CLR,,0.00,WeatherDisplay:10.37,2013-06-22 04:03:00,
2013-06-21 21:08:00,58.5,2.0,30.09,SW,225,1.2,0.0,10,0.00,CLR,,0.00,WeatherDisplay:10.37,2013-06-22 04:08:00,
2013-06-21 21:13:00,57.9,1.6,30.09,SW,225,1.2,0.0,10,0.00,CLR,,0.00,WeatherDisplay:10.37,2013-06-22 04:13:00,
2013-06-21 21:18:00,56.8,0.7,30.09,South,180,1.2,0.0,10,0.00,CLR,,0.00,WeatherDisplay:10.37,2013-06-22 04:18:00,
2013-06-21 21:23:00,56.1,0.2,30.10,South,180,1.2,1.2,10,0.00,CLR,,0.00,WeatherDisplay:10.37,2013-06-22 04:23:00,
2013-06-21 21:28:00,55.6,5.4,30.09,SW,225,0.0,0.0,13,0.00,CLR,,0.00,WeatherDisplay:10.37,2013-06-22 04:28:00,
2013-06-21 21:33:00,55.0,10.9,30.10,SW,225,1.2,0.0,17,0.00,CLR,,0.00,WeatherDisplay:10.37,2013-06-22 04:33:00,
2013-06-21 21:38:00,54.7,16.5,30.10,SW,225,1.2,1.2,22,0.00,CLR,,0.00,WeatherDisplay:10.37,2013-06-22 04:38:00,
2013-06-21 21:43:00,54.3,21.9,30.10,South,180,1.2,0.0,28,0.00,CLR,,0.00,WeatherDisplay:10.37,2013-06-22 04:43:00,
2013-06-21 21:48:00,54.0,25.5,30.11,SW,225,2.3,2.3,33,0.00,CLR,,0.00,WeatherDisplay:10.37,2013-06-22 04:48:00,
2013-06-21 21:53:00,53.8,26.7,30.10,South,180,1.2,1.2,35,0.00,CLR,,0.00,WeatherDisplay:10.37,2013-06-22 04:53:00,
2013-06-21 21:58:00,53.6,29.2,30.11,SW,225,3.5,3.5,39,0.00,CLR,,0.00,WeatherDisplay:10.37,2013-06-22 04:58:00,
2013-06-21 22:03:00,53.2,29.5,30.11,SW,225,2.3,0.0,40,0.00,CLR,,0.00,WeatherDisplay:10.37,2013-06-22 05:03:00,
2013-06-21 22:08:00,52.9,29.2,30.11,SW,225,0.0,0.0,40,0.00,CLR,,0.00,WeatherDisplay:10.37,2013-06-22 05:08:00,
2013-06-21 22:13:00,52.9,31.5,30.11,South,180,3.5,3.5,44,0.00,CLR,,0.00,WeatherDisplay:10.37,2013-06-22 05:13:00,
2013-06-21 22:18:00,52.7,32.5,30.11,SW,225,2.3,0.0,46,0.00,CLR,,0.00,WeatherDisplay:10.37,2013-06-22 05:18:00,
2013-06-21 22:23:00,52.5,32.3,30.11,SW,225,1.2,0.0,46,0.00,CLR,,0.00,WeatherDisplay:10.37,2013-06-22 05:23:00,
2013-06-21 22:28:00,52.3,32.7,30.11,SW,225,0.0,0.0,47,0.00,CLR,,0.00,WeatherDisplay:10.37,2013-06-22 05:28:00,
2013-06-21 22:33:00,52.3,32.7,30.11,South,180,0.0,0.0,47,0.00,CLR,,0.00,WeatherDisplay:10.37,2013-06-22 05:33:00,
2013-06-21 22:38:00,52.2,32.5,30.11,West,270,0.0,0.0,47,0.00,CLR,,0.00,WeatherDisplay:10.37,2013-06-22 05:38:00,
2013-06-21 22:43:00,52.0,32.4,30.10,NE,45,0.0,0.0,47,0.00,CLR,,0.00,WeatherDisplay:10.37,2013-06-22 05:43:00,
2013-06-21 22:48:00,51.8,32.2,30.11,South,180,0.0,0.0,47,0.00,CLR,,0.00,WeatherDisplay:10.37,2013-06-22 05:48:00,
2013-06-21 22:53:00,51.6,32.0,30.10,West,270,1.2,0.0,47,0.00,CLR,,0.00,WeatherDisplay:10.37,2013-06-22 05:53:00,
2013-06-21 22:58:00,51.4,32.4,30.10,South,180,2.3,2.3,48,0.00,CLR,,0.00,WeatherDisplay:10.37,2013-06-22 05:58:00,
2013-06-21 23:03:00,51.3,33.2,30.10,SW,225,2.3,0.0,50,0.00,CLR,,0.00,WeatherDisplay:10.37,2013-06-22 06:03:00,
2013-06-21 23:08:00,51.3,33.7,30.10,South,180,1.2,0.0,51,0.00,CLR,,0.00,WeatherDisplay:10.37,2013-06-22 06:08:00,
2013-06-21 23:13:00,51.1,33.6,30.10,SW,225,1.2,1.2,51,0.00,CLR,,0.00,WeatherDisplay:10.37,2013-06-22 06:13:00,
2013-06-21 23:18:00,50.7,32.7,30.10,SW,225,0.0,0.0,50,0.00,CLR,,0.00,WeatherDisplay:10.37,2013-06-22 06:18:00,
2013-06-21 23:23:00,50.5,33.1,30.10,West,270,0.0,0.0,51,0.00,CLR,,0.00,WeatherDisplay:10.37,2013-06-22 06:23:00,
2013-06-21 23:28:00,50.4,32.9,30.10,West,270,1.2,0.0,51,0.00,CLR,,0.00,WeatherDisplay:10.37,2013-06-22 06:28:00,
2013-06-21 23:33:00,50.4,32.9,30.10,West,270,0.0,0.0,51,0.00,CLR,,0.00,WeatherDisplay:10.37,2013-06-22 06:33:00,
2013-06-21 23:38:00,50.2,32.7,30.10,West,270,0.0,0.0,51,0.00,CLR,,0.00,WeatherDisplay:10.37,2013-06-22 06:38:00,
2013-06-21 23:43:00,50.0,32.6,30.10,West,270,1.2,0.0,51,0.00,CLR,,0.00,WeatherDisplay:10.37,2013-06-22 06:43:00,
2013-06-21 23:48:00,50.0,33.1,30.10,West,270,0.0,0.0,52,0.00,CLR,,0.00,WeatherDisplay:10.37,2013-06-22 06:48:00,
2013-06-21 23:53:00,49.8,32.9,30.10,West,270,1.2,0.0,52,0.00,CLR,,0.00,WeatherDisplay:10.37,2013-06-22 06:53:00,
2013-06-21 23:58:00,49.5,32.6,30.10,West,270,1.2,0.0,52,0.00,CLR,,0.00,WeatherDisplay:10.37,2013-06-22 06:58:00,